| time (UTC) | temp F | wind direction | speed MPH | gust MPH | rain 1hr in | rain 24hr in | rain mn in | humidity % | barometer mb |
| 20260831131147 | 82 | 77 | 3.0 | 6.0 | 0.00 | 0.00 | 0.20 | 88 | 1015.2 |
| 20260831130647 | 82 | 39 | 3.0 | 6.0 | 0.00 | 0.00 | 0.20 | 88 | 1015.6 |
| 20260831130150 | 81 | 45 | 4.0 | 5.0 | 0.00 | 0.00 | 0.20 | 90 | 1015.6 |
| 20260831125647 | 81 | 14 | 2.0 | 4.0 | 0.00 | 0.00 | 0.20 | 90 | 1015.6 |
| 20260831125148 | 81 | 339 | 2.0 | 5.0 | 0.00 | 0.00 | 0.20 | 89 | 1015.6 |
| 20260831124646 | 81 | 68 | 3.0 | 4.0 | 0.00 | 0.00 | 0.20 | 89 | 1015.6 |
| 20260831124147 | 80 | 31 | 3.0 | 4.0 | 0.00 | 0.00 | 0.20 | 92 | 1015.2 |
| 20260831123647 | 80 | 341 | 0.0 | 3.0 | 0.02 | 0.00 | 0.20 | 92 | 1015.6 |
| 20260831123149 | 80 | 67 | 3.0 | 4.0 | 0.02 | 0.00 | 0.20 | 93 | 1015.2 |
| 20260831122647 | 80 | 117 | 1.0 | 3.0 | 0.00 | 0.00 | 0.20 | 93 | 1015.2 |
| 20260831122149 | 79 | 107 | 2.0 | 3.0 | 0.00 | 0.00 | 0.20 | 93 | 1015.2 |
| 20260831121647 | 79 | 80 | 2.0 | 4.0 | 0.00 | 0.00 | 0.20 | 93 | 1015.2 |
| 20260831121149 | 79 | 73 | 3.0 | 5.0 | 0.00 | 0.00 | 0.20 | 93 | 1015.2 |
| 20260831120648 | 79 | 31 | 2.0 | 3.0 | 0.00 | 0.00 | 0.20 | 92 | 1015.2 |
| 20260831120148 | 79 | 34 | 0.0 | 4.0 | 0.00 | 0.00 | 0.20 | 92 | 1014.9 |
| 20260831115646 | 79 | 65 | 1.0 | 5.0 | 0.00 | 0.00 | 0.20 | 93 | 1014.9 |
| 20260831115149 | 78 | 104 | 2.0 | 5.0 | 0.00 | 0.00 | 0.20 | 93 | 1014.6 |
| 20260831114647 | 78 | 319 | 2.0 | 6.0 | 0.00 | 0.00 | 0.20 | 93 | 1014.6 |
| 20260831114150 | 78 | 27 | 3.0 | 5.0 | 0.00 | 0.00 | 0.20 | 93 | 1014.9 |
| 20260831113646 | 78 | 47 | 5.0 | 8.0 | 0.00 | 0.00 | 0.20 | 94 | 1014.6 |
| 20260831113146 | 77 | 58 | 4.0 | 5.0 | 0.00 | 0.00 | 0.20 | 96 | 1014.6 |
| 20260831112647 | 77 | 266 | 0.0 | 5.0 | 0.00 | 0.00 | 0.20 | 97 | 1014.6 |
| 20260831112146 | 77 | 4 | 2.0 | 3.0 | 0.00 | 0.00 | 0.20 | 97 | 1014.6 |
| 20260831111647 | 77 | 130 | 0.0 | 3.0 | 0.14 | 0.00 | 0.20 | 97 | 1014.6 |
| 20260831111146 | 77 | 89 | 0.0 | 3.0 | 0.35 | 0.00 | 0.20 | 96 | 1014.6 |
| 20260831110647 | 77 | 65 | 2.0 | 7.0 | 0.85 | 0.00 | 0.18 | 96 | 1014.9 |
| 20260831110147 | 77 | 45 | 2.0 | 8.0 | 0.64 | 0.00 | 0.12 | 95 | 1015.2 |
| 20260831105646 | 78 | 290 | 2.0 | 10.0 | 0.19 | 0.00 | 0.04 | 93 | 1015.2 |
| 20260831105149 | 79 | 144 | 8.0 | 13.0 | 0.09 | 0.00 | 0.02 | 90 | 1014.9 |
| 20260831104646 | 82 | 136 | 7.0 | 10.0 | 0.00 | 0.00 | 0.00 | 88 | 1014.6 |
| 20260831104146 | 82 | 185 | 0.0 | 3.0 | 0.00 | 0.00 | 0.00 | 87 | 1014.6 |
| 20260831103647 | 82 | 62 | 3.0 | 4.0 | 0.00 | 0.00 | 0.00 | 86 | 1014.6 |
| 20260831103146 | 82 | 57 | 2.0 | 3.0 | 0.00 | 0.00 | 0.00 | 86 | 1014.6 |
| 20260831102646 | 82 | 15 | 0.0 | 3.0 | 0.00 | 0.00 | 0.00 | 86 | 1014.6 |
| 20260831102146 | 82 | 52 | 3.0 | 4.0 | 0.00 | 0.00 | 0.00 | 86 | 1014.6 |
| 20260831101648 | 82 | 84 | 0.0 | 3.0 | 0.00 | 0.00 | 0.00 | 86 | 1014.2 |
| 20260831101147 | 82 | 37 | 1.0 | 2.0 | 0.00 | 0.00 | 0.00 | 85 | 1014.6 |
| 20260831100646 | 82 | 51 | 2.0 | 3.0 | 0.00 | 0.00 | 0.00 | 85 | 1014.6 |
| 20260831100148 | 82 | 52 | 3.0 | 3.0 | 0.00 | 0.00 | 0.00 | 86 | 1014.6 |
| 20260831095646 | 83 | 74 | 3.0 | 3.0 | 0.00 | 0.00 | 0.00 | 85 | 1014.6 |
| 20260831095146 | 83 | 17 | 3.0 | 4.0 | 0.00 | 0.00 | 0.00 | 85 | 1014.2 |
| 20260831094648 | 83 | 22 | 0.0 | 4.0 | 0.00 | 0.00 | 0.00 | 85 | 1014.2 |
| 20260831094147 | 83 | 84 | 2.0 | 4.0 | 0.00 | 0.00 | 0.00 | 85 | 1014.2 |
| 20260831093646 | 83 | 53 | 2.0 | 4.0 | 0.00 | 0.00 | 0.00 | 85 | 1014.2 |
| 20260831093147 | 83 | 55 | 3.0 | 6.0 | 0.00 | 0.00 | 0.00 | 85 | 1014.2 |
| 20260831092648 | 83 | 66 | 4.0 | 6.0 | 0.00 | 0.00 | 0.00 | 85 | 1013.9 |
| 20260831092146 | 83 | 61 | 4.0 | 5.0 | 0.00 | 0.00 | 0.00 | 84 | 1014.2 |
| 20260831091648 | 83 | 58 | 3.0 | 4.0 | 0.00 | 0.00 | 0.00 | 84 | 1014.2 |
| 20260831091146 | 83 | 80 | 2.0 | 6.0 | 0.00 | 0.00 | 0.00 | 84 | 1014.2 |
| 20260831090646 | 83 | 68 | 3.0 | 5.0 | 0.00 | 0.00 | 0.00 | 85 | 1014.2 |
| 20260831090147 | 83 | 71 | 2.0 | 7.0 | 0.00 | 0.00 | 0.00 | 85 | 1014.2 |
| 20260831085646 | 83 | 58 | 3.0 | 6.0 | 0.00 | 0.00 | 0.00 | 85 | 1013.9 |
| 20260831085146 | 83 | 65 | 4.0 | 6.0 | 0.00 | 0.00 | 0.00 | 85 | 1013.9 |
| 20260831084646 | 82 | 70 | 5.0 | 7.0 | 0.00 | 0.00 | 0.00 | 85 | 1014.2 |
| 20260831084147 | 82 | 74 | 4.0 | 6.0 | 0.00 | 0.00 | 0.00 | 85 | 1014.2 |
| 20260831083647 | 82 | 56 | 3.0 | 5.0 | 0.00 | 0.00 | 0.00 | 85 | 1014.2 |
| 20260831083146 | 82 | 61 | 6.0 | 6.0 | 0.00 | 0.00 | 0.00 | 85 | 1014.2 |
| 20260831082646 | 83 | 106 | 3.0 | 6.0 | 0.00 | 0.00 | 0.00 | 85 | 1014.2 |
| 20260831082146 | 83 | 66 | 2.0 | 4.0 | 0.00 | 0.00 | 0.00 | 84 | 1014.2 |
| 20260831081647 | 83 | 51 | 2.0 | 4.0 | 0.00 | 0.00 | 0.00 | 84 | 1014.2 |
| 20260831081146 | 83 | 70 | 2.0 | 5.0 | 0.00 | 0.00 | 0.00 | 84 | 1014.2 |
| 20260831080646 | 83 | 60 | 2.0 | 6.0 | 0.00 | 0.00 | 0.00 | 84 | 1014.2 |
| 20260831080146 | 83 | 88 | 2.0 | 4.0 | 0.00 | 0.00 | 0.00 | 84 | 1014.2 |
| 20260831075647 | 83 | 58 | 4.0 | 5.0 | 0.00 | 0.00 | 0.00 | 84 | 1013.9 |
| 20260831075147 | 83 | 69 | 3.0 | 5.0 | 0.00 | 0.00 | 0.00 | 84 | 1014.2 |
| 20260831074646 | 82 | 119 | 2.0 | 5.0 | 0.00 | 0.00 | 0.00 | 84 | 1014.2 |
| 20260831074147 | 82 | 74 | 3.0 | 4.0 | 0.00 | 0.00 | 0.00 | 85 | 1014.2 |
| 20260831073647 | 83 | 32 | 0.0 | 4.0 | 0.00 | 0.00 | 0.00 | 85 | 1014.2 |
| 20260831073146 | 83 | 70 | 3.0 | 6.0 | 0.00 | 0.00 | 0.00 | 85 | 1014.2 |
| 20260831072647 | 83 | 50 | 2.0 | 4.0 | 0.00 | 0.00 | 0.00 | 85 | 1014.2 |
| 20260831072151 | 83 | 58 | 5.0 | 7.0 | 0.00 | 0.00 | 0.00 | 85 | 1014.6 |
| 20260831071646 | 83 | 98 | 1.0 | 6.0 | 0.00 | 0.00 | 0.00 | 85 | 1014.2 |
| 20260831071146 | 83 | 57 | 4.0 | 8.0 | 0.00 | 0.00 | 0.00 | 85 | 1014.2 |
| 20260831070646 | 83 | 85 | 3.0 | 6.0 | 0.00 | 0.00 | 0.00 | 85 | 1014.2 |
| 20260831070147 | 83 | 58 | 7.0 | 10.0 | 0.00 | 0.00 | 0.00 | 85 | 1014.2 |
| 20260831065647 | 83 | 84 | 6.0 | 8.0 | 0.00 | 0.00 | 0.00 | 85 | 1014.2 |
| 20260831065146 | 83 | 88 | 3.0 | 8.0 | 0.00 | 0.00 | 0.00 | 85 | 1014.6 |
| 20260831064647 | 83 | 54 | 3.0 | 7.0 | 0.00 | 0.00 | 0.00 | 85 | 1014.6 |
| 20260831064147 | 83 | 72 | 5.0 | 7.0 | 0.00 | 0.00 | 0.00 | 85 | 1014.6 |
| 20260831063646 | 83 | 92 | 6.0 | 7.0 | 0.00 | 0.00 | 0.00 | 85 | 1014.6 |
| 20260831063146 | 83 | 217 | 2.0 | 5.0 | 0.00 | 0.00 | 0.00 | 84 | 1014.9 |
| 20260831062646 | 83 | 64 | 2.0 | 5.0 | 0.00 | 0.00 | 0.00 | 84 | 1014.9 |
| 20260831062146 | 83 | 77 | 2.0 | 8.0 | 0.00 | 0.00 | 0.00 | 84 | 1014.9 |
| 20260831061646 | 83 | 117 | 3.0 | 9.0 | 0.00 | 0.00 | 0.00 | 85 | 1015.2 |
| 20260831061146 | 83 | 47 | 4.0 | 4.0 | 0.00 | 0.00 | 0.00 | 85 | 1015.2 |
| 20260831060647 | 83 | 75 | 2.0 | 8.0 | 0.00 | 0.00 | 0.00 | 84 | 1015.2 |
| 20260831060148 | 83 | 81 | 3.0 | 8.0 | 0.00 | 0.00 | 0.00 | 84 | 1014.9 |
| 20260831055647 | 83 | 110 | 1.0 | 7.0 | 0.00 | 0.00 | 0.00 | 84 | 1015.2 |
| 20260831055146 | 83 | 143 | 7.0 | 7.0 | 0.00 | 0.00 | 0.00 | 84 | 1014.9 |
| 20260831054646 | 83 | 61 | 5.0 | 7.0 | 0.00 | 0.00 | 0.00 | 84 | 1015.2 |
| 20260831054146 | 83 | 76 | 5.0 | 7.0 | 0.00 | 0.00 | 0.00 | 85 | 1015.2 |
| 20260831053646 | 83 | 120 | 1.0 | 5.0 | 0.00 | 0.00 | 0.00 | 85 | 1015.2 |
| 20260831053146 | 83 | 123 | 2.0 | 6.0 | 0.00 | 0.00 | 0.00 | 85 | 1015.2 |
| 20260831052646 | 83 | 73 | 4.0 | 5.0 | 0.00 | 0.00 | 0.00 | 85 | 1015.2 |
| 20260831052147 | 83 | 67 | 6.0 | 11.0 | 0.00 | 0.00 | 0.00 | 84 | 1015.2 |
| 20260831051646 | 83 | 86 | 6.0 | 9.0 | 0.00 | 0.00 | 0.00 | 85 | 1015.2 |
| 20260831051148 | 83 | 70 | 5.0 | 9.0 | 0.00 | 0.00 | 0.00 | 85 | 1015.2 |
| 20260831050647 | 83 | 52 | 3.0 | 9.0 | 0.00 | 0.00 | 0.00 | 85 | 1015.2 |
| 20260831050147 | 83 | 68 | 5.0 | 7.0 | 0.00 | 0.00 | 0.00 | 85 | 1015.2 |
| 20260831045646 | 83 | 152 | 3.0 | 8.0 | 0.00 | 0.00 | 0.26 | 85 | 1015.2 |
| 20260831045146 | 83 | 57 | 7.0 | 8.0 | 0.00 | 0.00 | 0.26 | 85 | 1015.2 |
| 20260831044646 | 83 | 88 | 5.0 | 8.0 | 0.00 | 0.00 | 0.26 | 85 | 1015.2 |
| 20260831044147 | 83 | 84 | 3.0 | 10.0 | 0.00 | 0.00 | 0.26 | 85 | 1015.6 |
| 20260831043646 | 83 | 99 | 4.0 | 7.0 | 0.00 | 0.00 | 0.26 | 84 | 1015.2 |
| 20260831043146 | 83 | 79 | 3.0 | 9.0 | 0.00 | 0.00 | 0.26 | 84 | 1015.6 |
| 20260831042647 | 83 | 62 | 5.0 | 7.0 | 0.00 | 0.00 | 0.26 | 84 | 1015.6 |
| 20260831042146 | 83 | 82 | 2.0 | 6.0 | 0.00 | 0.00 | 0.26 | 84 | 1015.9 |
| 20260831041647 | 83 | 84 | 6.0 | 8.0 | 0.00 | 0.00 | 0.26 | 83 | 1015.6 |
| 20260831041147 | 83 | 84 | 2.0 | 4.0 | 0.00 | 0.00 | 0.26 | 83 | 1015.6 |
| 20260831040647 | 83 | 50 | 2.0 | 9.0 | 0.00 | 0.00 | 0.26 | 83 | 1015.6 |
| 20260831040154 | 83 | 50 | 8.0 | 10.0 | 0.00 | 0.00 | 0.26 | 83 | 1015.6 |
| 20260831035646 | 83 | 81 | 4.0 | 5.0 | 0.00 | 0.00 | 0.26 | 82 | 1015.6 |
| 20260831035147 | 83 | 39 | 3.0 | 5.0 | 0.00 | 0.00 | 0.26 | 82 | 1015.6 |
| 20260831034647 | 83 | 107 | 2.0 | 5.0 | 0.00 | 0.00 | 0.26 | 82 | 1015.6 |
| 20260831034147 | 83 | 80 | 5.0 | 6.0 | 0.00 | 0.00 | 0.26 | 82 | 1015.9 |
| 20260831033647 | 83 | 79 | 2.0 | 3.0 | 0.00 | 0.00 | 0.26 | 82 | 1015.6 |
| 20260831033147 | 84 | 50 | 4.0 | 10.0 | 0.00 | 0.00 | 0.26 | 81 | 1015.9 |
| 20260831032646 | 84 | 96 | 6.0 | 7.0 | 0.00 | 0.00 | 0.26 | 81 | 1015.9 |
| 20260831032147 | 84 | 222 | 1.0 | 4.0 | 0.00 | 0.00 | 0.26 | 81 | 1015.9 |
| 20260831031648 | 84 | 85 | 3.0 | 7.0 | 0.00 | 0.00 | 0.26 | 81 | 1015.9 |
| 20260831030711 | 84 | 63 | 3.0 | 9.0 | 0.00 | 0.00 | 0.26 | 81 | 1015.2 |
| 20260831030146 | 84 | 68 | 4.0 | 7.0 | 0.00 | 0.00 | 0.26 | 81 | 1015.6 |
| 20260831025646 | 83 | 69 | 4.0 | 7.0 | 0.00 | 0.00 | 0.26 | 81 | 1015.6 |
| 20260831025147 | 84 | 57 | 2.0 | 5.0 | 0.00 | 0.00 | 0.26 | 81 | 1015.6 |
| 20260831024646 | 84 | 71 | 6.0 | 9.0 | 0.00 | 0.00 | 0.26 | 80 | 1015.2 |
| 20260831024148 | 84 | 108 | 5.0 | 6.0 | 0.00 | 0.00 | 0.26 | 80 | 1015.6 |
| 20260831023646 | 84 | 72 | 2.0 | 4.0 | 0.00 | 0.00 | 0.26 | 80 | 1015.6 |
| 20260831023147 | 84 | 61 | 2.0 | 5.0 | 0.00 | 0.00 | 0.26 | 79 | 1015.6 |
| 20260831022646 | 84 | 77 | 2.0 | 7.0 | 0.00 | 0.00 | 0.26 | 79 | 1015.2 |
| 20260831022148 | 84 | 82 | 5.0 | 9.0 | 0.00 | 0.00 | 0.26 | 78 | 1015.2 |
| 20260831021647 | 84 | 62 | 7.0 | 10.0 | 0.00 | 0.00 | 0.26 | 78 | 1015.2 |
| 20260831021146 | 84 | 84 | 7.0 | 13.0 | 0.00 | 0.00 | 0.26 | 77 | 1015.2 |
| 20260831020646 | 84 | 64 | 9.0 | 9.0 | 0.00 | 0.00 | 0.26 | 79 | 1015.2 |
| 20260831020147 | 84 | 86 | 7.0 | 8.0 | 0.00 | 0.00 | 0.26 | 80 | 1015.2 |
| 20260831015647 | 84 | 38 | 9.0 | 13.0 | 0.00 | 0.00 | 0.26 | 80 | 1014.9 |
| 20260831015148 | 84 | 60 | 5.0 | 6.0 | 0.00 | 0.00 | 0.26 | 79 | 1014.9 |
| 20260831014647 | 84 | 68 | 3.0 | 7.0 | 0.00 | 0.00 | 0.26 | 79 | 1014.9 |
| 20260831014147 | 84 | 96 | 7.0 | 9.0 | 0.00 | 0.00 | 0.26 | 78 | 1014.9 |
| 20260831013647 | 84 | 53 | 6.0 | 9.0 | 0.00 | 0.00 | 0.26 | 78 | 1014.9 |
| 20260831013146 | 84 | 71 | 6.0 | 13.0 | 0.00 | 0.00 | 0.26 | 78 | 1014.6 |
| 20260831012647 | 84 | 94 | 5.0 | 11.0 | 0.00 | 0.00 | 0.26 | 78 | 1014.6 |
| 20260831012146 | 84 | 69 | 6.0 | 9.0 | 0.00 | 0.00 | 0.26 | 77 | 1014.6 |
| 20260831011648 | 84 | 51 | 5.0 | 11.0 | 0.00 | 0.00 | 0.26 | 78 | 1014.6 |
| 20260831011146 | 85 | 67 | 5.0 | 11.0 | 0.00 | 0.00 | 0.26 | 77 | 1014.6 |
| 20260831010647 | 84 | 79 | 8.0 | 10.0 | 0.00 | 0.00 | 0.26 | 77 | 1014.6 |
| 20260831010147 | 85 | 68 | 8.0 | 10.0 | 0.00 | 0.00 | 0.26 | 76 | 1014.2 |
| 20260831005646 | 85 | 80 | 3.0 | 7.0 | 0.00 | 0.00 | 0.26 | 76 | 1014.2 |
| 20260831005149 | 85 | 70 | 8.0 | 10.0 | 0.00 | 0.00 | 0.26 | 76 | 1014.2 |
| 20260831004646 | 85 | 68 | 5.0 | 11.0 | 0.00 | 0.00 | 0.26 | 75 | 1014.2 |
| 20260831004146 | 85 | 34 | 3.0 | 7.0 | 0.00 | 0.00 | 0.26 | 75 | 1014.2 |
| 20260831003646 | 85 | 62 | 6.0 | 9.0 | 0.00 | 0.00 | 0.26 | 75 | 1014.2 |
| 20260831003146 | 85 | 58 | 6.0 | 7.0 | 0.00 | 0.00 | 0.26 | 76 | 1014.2 |
| 20260831002647 | 85 | 72 | 2.0 | 8.0 | 0.00 | 0.00 | 0.26 | 76 | 1014.2 |
| 20260831002146 | 85 | 73 | 4.0 | 11.0 | 0.00 | 0.00 | 0.26 | 76 | 1014.2 |
| 20260831001647 | 85 | 91 | 3.0 | 11.0 | 0.00 | 0.00 | 0.26 | 76 | 1014.2 |
| 20260831001146 | 85 | 60 | 7.0 | 11.0 | 0.00 | 0.00 | 0.26 | 75 | 1014.2 |
| 20260831000646 | 86 | 65 | 9.0 | 15.0 | 0.00 | 0.00 | 0.26 | 74 | 1014.2 |
| 20260831000146 | 86 | 63 | 10.0 | 14.0 | 0.00 | 0.00 | 0.26 | 72 | 1014.2 |
| 20260830235646 | 86 | 51 | 8.0 | 13.0 | 0.00 | 0.00 | 0.26 | 72 | 1014.2 |
| 20260830235146 | 86 | 49 | 8.0 | 14.0 | 0.00 | 0.00 | 0.26 | 73 | 1014.2 |
| 20260830234647 | 86 | 32 | 5.0 | 11.0 | 0.00 | 0.00 | 0.26 | 74 | 1014.2 |
| 20260830234147 | 86 | 57 | 9.0 | 13.0 | 0.00 | 0.00 | 0.26 | 74 | 1014.2 |
| 20260830233646 | 86 | 67 | 10.0 | 11.0 | 0.00 | 0.00 | 0.26 | 74 | 1014.2 |
| 20260830233148 | 87 | 73 | 5.0 | 10.0 | 0.00 | 0.00 | 0.26 | 74 | 1014.2 |
| 20260830232647 | 87 | 38 | 7.0 | 11.0 | 0.00 | 0.00 | 0.26 | 74 | 1014.2 |
| 20260830232146 | 87 | 45 | 6.0 | 10.0 | 0.00 | 0.00 | 0.26 | 73 | 1014.2 |
| 20260830231646 | 87 | 40 | 4.0 | 11.0 | 0.00 | 0.00 | 0.26 | 74 | 1014.2 |
| 20260830231146 | 87 | 47 | 2.0 | 9.0 | 0.00 | 0.00 | 0.26 | 73 | 1014.2 |
| 20260830230646 | 87 | 62 | 8.0 | 11.0 | 0.00 | 0.00 | 0.26 | 73 | 1014.2 |
| 20260830230146 | 87 | 69 | 11.0 | 15.0 | 0.00 | 0.00 | 0.26 | 73 | 1014.2 |
| 20260830225645 | 87 | 62 | 4.0 | 13.0 | 0.00 | 0.00 | 0.26 | 73 | 1014.2 |
| 20260830225146 | 87 | 22 | 2.0 | 6.0 | 0.00 | 0.00 | 0.26 | 73 | 1014.2 |
| 20260830224646 | 87 | 50 | 3.0 | 11.0 | 0.00 | 0.00 | 0.26 | 73 | 1014.2 |
| 20260830224146 | 87 | 82 | 6.0 | 8.0 | 0.00 | 0.00 | 0.26 | 73 | 1014.2 |
| 20260830223646 | 87 | 68 | 11.0 | 12.0 | 0.00 | 0.00 | 0.26 | 72 | 1014.2 |
| 20260830223146 | 87 | 40 | 5.0 | 10.0 | 0.00 | 0.00 | 0.26 | 71 | 1014.2 |
| 20260830222646 | 87 | 73 | 6.0 | 13.0 | 0.00 | 0.00 | 0.26 | 71 | 1014.2 |
| 20260830222146 | 87 | 66 | 9.0 | 10.0 | 0.00 | 0.00 | 0.26 | 70 | 1014.2 |
| 20260830221646 | 87 | 65 | 3.0 | 11.0 | 0.00 | 0.00 | 0.26 | 69 | 1014.6 |
| 20260830221147 | 87 | 50 | 8.0 | 11.0 | 0.00 | 0.00 | 0.26 | 69 | 1014.2 |
| 20260830220646 | 87 | 51 | 8.0 | 10.0 | 0.00 | 0.00 | 0.26 | 69 | 1014.6 |
| 20260830220146 | 87 | 88 | 7.0 | 12.0 | 0.00 | 0.00 | 0.26 | 69 | 1014.6 |
| 20260830215645 | 87 | 84 | 8.0 | 9.0 | 0.00 | 0.00 | 0.26 | 70 | 1014.6 |
| 20260830215146 | 87 | 69 | 8.0 | 13.0 | 0.00 | 0.00 | 0.26 | 69 | 1014.6 |
| 20260830214647 | 87 | 65 | 6.0 | 11.0 | 0.00 | 0.00 | 0.26 | 69 | 1014.2 |
| 20260830214147 | 87 | 53 | 6.0 | 13.0 | 0.00 | 0.00 | 0.26 | 68 | 1014.6 |
| 20260830213646 | 87 | 64 | 9.0 | 11.0 | 0.00 | 0.00 | 0.26 | 68 | 1014.6 |
| 20260830213148 | 88 | 59 | 11.0 | 11.0 | 0.00 | 0.00 | 0.26 | 66 | 1014.6 |
| 20260830212646 | 88 | 74 | 7.0 | 11.0 | 0.00 | 0.00 | 0.26 | 67 | 1014.6 |
| 20260830212147 | 88 | 84 | 3.0 | 11.0 | 0.00 | 0.00 | 0.26 | 68 | 1014.6 |
| 20260830211646 | 87 | 62 | 5.0 | 9.0 | 0.00 | 0.00 | 0.26 | 68 | 1014.6 |
| 20260830211146 | 87 | 64 | 9.0 | 13.0 | 0.00 | 0.00 | 0.26 | 70 | 1014.6 |
| 20260830210646 | 87 | 91 | 4.0 | 12.0 | 0.00 | 0.00 | 0.26 | 71 | 1014.6 |
| 20260830210148 | 88 | 52 | 5.0 | 10.0 | 0.00 | 0.00 | 0.26 | 70 | 1014.6 |
| 20260830205646 | 87 | 70 | 10.0 | 14.0 | 0.00 | 0.00 | 0.26 | 70 | 1014.6 |
| 20260830205146 | 88 | 70 | 7.0 | 14.0 | 0.00 | 0.00 | 0.26 | 69 | 1014.6 |
| 20260830204646 | 88 | 32 | 5.0 | 12.0 | 0.00 | 0.00 | 0.26 | 70 | 1014.9 |
| 20260830204146 | 87 | 85 | 3.0 | 11.0 | 0.00 | 0.00 | 0.26 | 71 | 1014.6 |
| 20260830203646 | 88 | 40 | 8.0 | 17.0 | 0.00 | 0.00 | 0.26 | 70 | 1014.9 |
| 20260830203146 | 89 | 58 | 3.0 | 9.0 | 0.00 | 0.00 | 0.26 | 67 | 1014.6 |
| 20260830202647 | 89 | 72 | 9.0 | 12.0 | 0.00 | 0.00 | 0.26 | 66 | 1014.6 |
| 20260830202146 | 88 | 63 | 6.0 | 12.0 | 0.00 | 0.00 | 0.26 | 67 | 1014.6 |
| 20260830201646 | 89 | 84 | 5.0 | 7.0 | 0.00 | 0.00 | 0.26 | 66 | 1014.9 |
| 20260830201147 | 88 | 130 | 2.0 | 10.0 | 0.00 | 0.00 | 0.26 | 66 | 1014.9 |
| 20260830200647 | 88 | 85 | 4.0 | 11.0 | 0.00 | 0.00 | 0.26 | 66 | 1015.2 |
| 20260830200147 | 88 | 60 | 8.0 | 15.0 | 0.00 | 0.00 | 0.26 | 66 | 1015.2 |
| 20260830195646 | 88 | 35 | 3.0 | 8.0 | 0.00 | 0.00 | 0.26 | 66 | 1015.2 |
| 20260830195147 | 88 | 114 | 6.0 | 9.0 | 0.00 | 0.00 | 0.26 | 66 | 1015.2 |
| 20260830194646 | 88 | 70 | 6.0 | 8.0 | 0.00 | 0.00 | 0.26 | 66 | 1015.2 |
| 20260830194146 | 89 | 121 | 4.0 | 7.0 | 0.00 | 0.00 | 0.26 | 66 | 1015.2 |
| 20260830193647 | 90 | 10 | 2.0 | 8.0 | 0.00 | 0.00 | 0.26 | 65 | 1015.6 |
| 20260830193148 | 91 | 139 | 6.0 | 11.0 | 0.00 | 0.00 | 0.26 | 63 | 1015.6 |
| 20260830192646 | 91 | 134 | 7.0 | 8.0 | 0.00 | 0.00 | 0.26 | 63 | 1015.6 |
| 20260830192146 | 90 | 64 | 5.0 | 8.0 | 0.00 | 0.00 | 0.26 | 62 | 1015.6 |
| 20260830191646 | 91 | 101 | 4.0 | 11.0 | 0.00 | 0.00 | 0.26 | 63 | 1015.6 |
| 20260830191146 | 90 | 80 | 5.0 | 13.0 | 0.00 | 0.00 | 0.26 | 64 | 1015.6 |
| 20260830190646 | 90 | 52 | 11.0 | 14.0 | 0.00 | 0.00 | 0.26 | 63 | 1015.9 |
| 20260830190147 | 90 | 54 | 7.0 | 13.0 | 0.00 | 0.00 | 0.26 | 62 | 1015.6 |
| 20260830185647 | 90 | 26 | 3.0 | 11.0 | 0.00 | 0.00 | 0.26 | 63 | 1015.9 |
| 20260830185146 | 89 | 56 | 2.0 | 13.0 | 0.00 | 0.00 | 0.26 | 64 | 1015.9 |
| 20260830184646 | 89 | 46 | 9.0 | 15.0 | 0.00 | 0.00 | 0.26 | 64 | 1015.9 |
| 20260830184146 | 89 | 52 | 9.0 | 13.0 | 0.00 | 0.00 | 0.26 | 64 | 1015.9 |
| 20260830183646 | 89 | 50 | 5.0 | 15.0 | 0.00 | 0.00 | 0.26 | 64 | 1015.9 |
| 20260830183146 | 89 | 352 | 3.0 | 16.0 | 0.00 | 0.00 | 0.26 | 64 | 1015.9 |
| 20260830182646 | 89 | 61 | 9.0 | 17.0 | 0.00 | 0.00 | 0.26 | 66 | 1015.9 |
| 20260830182147 | 90 | 60 | 6.0 | 13.0 | 0.00 | 0.00 | 0.26 | 67 | 1015.9 |
| 20260830181646 | 89 | 30 | 7.0 | 10.0 | 0.00 | 0.00 | 0.26 | 69 | 1016.3 |
| 20260830181146 | 89 | 63 | 8.0 | 15.0 | 0.00 | 0.00 | 0.26 | 69 | 1016.3 |
| 20260830180647 | 88 | 50 | 6.0 | 14.0 | 0.00 | 0.00 | 0.26 | 72 | 1016.3 |
| 20260830180146 | 88 | 64 | 11.0 | 16.0 | 0.00 | 0.00 | 0.26 | 71 | 1016.3 |
| 20260830175646 | 88 | 71 | 13.0 | 13.0 | 0.00 | 0.00 | 0.26 | 71 | 1016.6 |
| 20260830175147 | 88 | 72 | 3.0 | 13.0 | 0.00 | 0.00 | 0.26 | 69 | 1016.6 |
| 20260830174646 | 88 | 358 | 2.0 | 15.0 | 0.00 | 0.00 | 0.26 | 67 | 1016.6 |
| 20260830174146 | 88 | 59 | 7.0 | 11.0 | 0.00 | 0.00 | 0.26 | 67 | 1016.6 |
| 20260830173647 | 88 | 29 | 4.0 | 16.0 | 0.00 | 0.00 | 0.26 | 67 | 1016.6 |
| 20260830173146 | 88 | 44 | 7.0 | 18.0 | 0.00 | 0.00 | 0.26 | 66 | 1016.9 |
| 20260830172647 | 88 | 47 | 11.0 | 14.0 | 0.00 | 0.00 | 0.26 | 65 | 1016.9 |
| 20260830172146 | 88 | 44 | 7.0 | 16.0 | 0.00 | 0.00 | 0.26 | 67 | 1016.9 |
| 20260830171646 | 86 | 73 | 8.0 | 13.0 | 0.00 | 0.00 | 0.26 | 73 | 1016.9 |
| 20260830171146 | 85 | 3 | 0.0 | 5.0 | 0.00 | 0.00 | 0.26 | 80 | 1016.9 |
| 20260830170649 | 85 | 332 | 3.0 | 5.0 | 0.00 | 0.00 | 0.26 | 84 | 1016.9 |
| 20260830170146 | 84 | 347 | 5.0 | 6.0 | 0.00 | 0.00 | 0.26 | 86 | 1016.9 |
| 20260830165646 | 84 | 350 | 4.0 | 7.0 | 0.00 | 0.00 | 0.26 | 85 | 1017.3 |
| 20260830165146 | 83 | 34 | 4.0 | 6.0 | 0.00 | 0.00 | 0.26 | 92 | 1016.9 |
| 20260830164646 | 81 | 327 | 5.0 | 5.0 | 0.00 | 0.00 | 0.26 | 92 | 1017.3 |
| 20260830164146 | 80 | 291 | 3.0 | 4.0 | 0.14 | 0.00 | 0.26 | 91 | 1016.9 |
| 20260830163646 | 79 | 320 | 3.0 | 3.0 | 0.78 | 0.00 | 0.26 | 93 | 1017.3 |
| 20260830163146 | 79 | 76 | 3.0 | 6.0 | 1.37 | 0.00 | 0.23 | 91 | 1017.3 |
| 20260830162647 | 83 | 76 | 6.0 | 13.0 | 0.97 | 0.00 | 0.16 | 86 | 1017.3 |
| 20260830162146 | 87 | 55 | 6.0 | 11.0 | 0.00 | 0.00 | 0.00 | 76 | 1017.3 |
| 20260830161646 | 87 | 56 | 2.0 | 9.0 | 0.00 | 0.00 | 0.00 | 76 | 1017.3 |
| 20260830161146 | 87 | 27 | 5.0 | 11.0 | 0.00 | 0.00 | 0.00 | 75 | 1016.9 |
| 20260830160647 | 87 | 21 | 4.0 | 9.0 | 0.00 | 0.00 | 0.00 | 77 | 1016.9 |
| 20260830160146 | 87 | 359 | 7.0 | 9.0 | 0.00 | 0.00 | 0.00 | 78 | 1016.9 |
| 20260830155646 | 86 | 52 | 10.0 | 11.0 | 0.00 | 0.00 | 0.00 | 78 | 1016.9 |
| 20260830155146 | 86 | 41 | 5.0 | 7.0 | 0.00 | 0.00 | 0.00 | 78 | 1016.9 |
| 20260830154647 | 86 | 34 | 5.0 | 10.0 | 0.00 | 0.00 | 0.00 | 79 | 1016.9 |
| 20260830154146 | 87 | 46 | 4.0 | 11.0 | 0.00 | 0.00 | 0.00 | 75 | 1016.9 |
| 20260830153646 | 87 | 36 | 4.0 | 9.0 | 0.00 | 0.00 | 0.00 | 76 | 1016.6 |
| 20260830153147 | 87 | 40 | 4.0 | 11.0 | 0.00 | 0.00 | 0.00 | 78 | 1016.9 |
| 20260830152646 | 86 | 352 | 3.0 | 9.0 | 0.00 | 0.00 | 0.00 | 78 | 1016.6 |
| 20260830152146 | 86 | 351 | 3.0 | 9.0 | 0.00 | 0.00 | 0.00 | 79 | 1016.9 |
| 20260830151647 | 86 | 34 | 3.0 | 6.0 | 0.00 | 0.00 | 0.00 | 80 | 1016.9 |
| 20260830151146 | 86 | 45 | 2.0 | 10.0 | 0.00 | 0.00 | 0.00 | 81 | 1016.9 |
| 20260830150646 | 85 | 360 | 4.0 | 10.0 | 0.00 | 0.00 | 0.00 | 81 | 1016.9 |
| 20260830150146 | 86 | 26 | 3.0 | 12.0 | 0.00 | 0.00 | 0.00 | 81 | 1016.6 |
| 20260830145647 | 86 | 25 | 5.0 | 9.0 | 0.00 | 0.00 | 0.00 | 81 | 1016.9 |
| 20260830145146 | 86 | 18 | 5.0 | 8.0 | 0.00 | 0.00 | 0.00 | 81 | 1016.9 |
| 20260830144647 | 85 | 56 | 6.0 | 9.0 | 0.00 | 0.00 | 0.00 | 80 | 1016.9 |
| 20260830144146 | 86 | 20 | 4.0 | 8.0 | 0.00 | 0.00 | 0.00 | 80 | 1016.6 |
| 20260830143646 | 86 | 35 | 6.0 | 8.0 | 0.00 | 0.00 | 0.00 | 79 | 1016.6 |
| 20260830143146 | 86 | 33 | 5.0 | 10.0 | 0.00 | 0.00 | 0.00 | 80 | 1016.6 |
| 20260830142646 | 85 | 36 | 6.0 | 11.0 | 0.00 | 0.00 | 0.00 | 82 | 1016.6 |
| 20260830142146 | 85 | 72 | 7.0 | 8.0 | 0.00 | 0.00 | 0.00 | 82 | 1016.6 |
| 20260830141646 | 85 | 38 | 8.0 | 9.0 | 0.00 | 0.00 | 0.00 | 83 | 1016.6 |
| 20260830141146 | 85 | 44 | 5.0 | 7.0 | 0.00 | 0.00 | 0.00 | 83 | 1016.6 |
| 20260830140647 | 85 | 28 | 7.0 | 9.0 | 0.00 | 0.00 | 0.00 | 84 | 1016.3 |
| 20260830140147 | 85 | 27 | 5.0 | 8.0 | 0.00 | 0.00 | 0.00 | 83 | 1016.6 |
| 20260830135646 | 85 | 17 | 3.0 | 6.0 | 0.00 | 0.00 | 0.00 | 82 | 1016.6 |
| 20260830135147 | 86 | 25 | 3.0 | 9.0 | 0.00 | 0.00 | 0.00 | 82 | 1016.6 |
| 20260830134647 | 85 | 14 | 3.0 | 7.0 | 0.00 | 0.00 | 0.00 | 81 | 1016.6 |
| 20260830134146 | 85 | 22 | 4.0 | 9.0 | 0.00 | 0.00 | 0.00 | 83 | 1016.6 |
| 20260830133646 | 85 | 37 | 5.0 | 10.0 | 0.00 | 0.00 | 0.00 | 82 | 1016.6 |
| 20260830133146 | 85 | 36 | 5.0 | 9.0 | 0.00 | 0.00 | 0.00 | 83 | 1016.6 |
| 20260830132646 | 84 | 61 | 10.0 | 11.0 | 0.00 | 0.00 | 0.00 | 84 | 1016.6 |
| 20260830132147 | 84 | 51 | 5.0 | 9.0 | 0.00 | 0.00 | 0.00 | 84 | 1016.6 |
| 20260830131646 | 84 | 7 | 4.0 | 9.0 | 0.00 | 0.00 | 0.00 | 84 | 1016.6 |